Weather History for K3LF - September, 2012

Change the Weather History Date:

Tuesday, September 25, 2012

  Actual Average (KSPI) Record (KSPI)
Temperature  
Mean Temperature 66 °F 63 °F  
Max Temperature 78 °F 75 °F 94 °F (1891)
Min Temperature 55 °F 50 °F 36 °F (2001)
Degree Days  
Heating Degree Days 0 5  
Month to date heating degree days 49  
Since 1 July heating degree days 54  
Cooling Degree Days 2 2  
Month to date cooling degree days 118  
Year to date cooling degree days 1088  
Growing Degree Days 16 (Base 50)    
Moisture  
Dew Point 59 °F    
Average Humidity 83    
Maximum Humidity 96    
Minimum Humidity 60    
Precipitation  
Precipitation 0.52 in 0.10 in 1.95 in (1886)
Month to date precipitation 2.43  
Year to date precipitation 28.08  
Snow  
Snow 0.00 in 0.00 in T in (1942)
Month to date snowfall 0.0  
Since 1 July snowfall 0.0  
Since 1 September snowfall 0.0  
Snow Depth -    
Sea Level Pressure  
Sea Level Pressure 29.90 in    
Wind  
Wind Speed 8 mph (SSE)    
Max Wind Speed 17 mph    
Max Gust Speed 25 mph    
Visibility 9 miles    
Events Rain , Thunderstorm    
T = Trace of Precipitation, MM = Missing Value Source: NWS Daily Summary

Daily Weather History Graph

Daily Weather History Graph

Search for Another Location

Airport or City:

Trip Planner

Search our weather history database for the weather conditions in past years. The results will help you decide how hot, cold, wet, or windy it might be!

Date:

Astronomy

Sep. 25, 2012 Rise Set
Actual Time 6:49 AM CDT 6:50 PM CDT
Civil Twilight 6:22 AM CDT 7:16 PM CDT
Nautical Twilight 5:51 AM CDT 7:47 PM CDT
Astronomical Twilight 5:20 AM CDT 8:19 PM CDT
Moon 4:13 PM CDT (9/25) 2:12 AM CDT (9/25)
Length of Visible Light 12h 53m
Length of Day
12h 00m
Waxing Gibbous, 80% of the Moon is Illuminated
Sep 25
Waxing Gibbous
Sep 29
Full
Oct 8
Last Quarter
Oct 15
New
Oct 21
First Quarter

Hourly Weather History & Observations

Time (CDT) Temp. Dew Point Humidity Pressure Visibility Wind Dir Wind Speed Gust Speed Precip Events Conditions
12:15 AM 57.7 °F 46.4 °F 66% 29.96 in 10.0 mi South 6.9 mph - N/A   Clear
12:35 AM 58.3 °F 46.4 °F 65% 29.96 in 10.0 mi SSE 6.9 mph - N/A   Clear
12:55 AM 58.3 °F 46.6 °F 65% 29.96 in 10.0 mi SE 5.8 mph - N/A   Clear
1:15 AM 58.3 °F 46.6 °F 65% 29.95 in 10.0 mi SE 6.9 mph - N/A   Clear
1:35 AM 58.5 °F 46.8 °F 65% 29.95 in 10.0 mi SSE 6.9 mph - N/A   Clear
1:55 AM 58.5 °F 46.9 °F 66% 29.94 in 10.0 mi SE 6.9 mph - N/A   Clear
2:15 AM 58.5 °F 47.3 °F 66% 29.93 in 10.0 mi SE 8.1 mph - N/A Thunderstorm Clear
2:35 AM 58.3 °F 47.5 °F 67% 29.91 in 10.0 mi SSE 10.4 mph - N/A Thunderstorm Scattered Clouds
2:55 AM 58.1 °F 47.8 °F 69% 29.89 in 10.0 mi SE 8.1 mph - N/A Thunderstorm Mostly Cloudy
3:15 AM 57.6 °F 49.3 °F 74% 29.95 in 10.0 mi WSW 6.9 mph - N/A Rain , Thunderstorm Light Thunderstorms and Rain
3:35 AM 55.6 °F 51.6 °F 87% 29.90 in 5.0 mi South 17.3 mph 25.3 mph 0.22 in Rain , Thunderstorm Heavy Thunderstorms and Rain
3:55 AM 55.6 °F 53.1 °F 91% 29.88 in 7.0 mi SSE 11.5 mph - 0.28 in Rain , Thunderstorm Light Thunderstorms and Rain
4:15 AM 55.4 °F 53.1 °F 92% 29.88 in 10.0 mi South 8.1 mph - N/A Thunderstorm Scattered Clouds
4:35 AM 56.3 °F 54.5 °F 94% 29.90 in 10.0 mi South 6.9 mph - 0.01 in Thunderstorm Thunderstorm
4:55 AM 57.4 °F 54.5 °F 90% 29.90 in 10.0 mi SSE 5.8 mph - 0.01 in Rain , Thunderstorm Light Thunderstorms and Rain
5:15 AM 57.4 °F 54.9 °F 91% 29.91 in 10.0 mi South 5.8 mph - N/A Rain , Thunderstorm Light Thunderstorms and Rain
5:35 AM 57.7 °F 55.4 °F 92% 29.93 in 10.0 mi North 6.9 mph - N/A Rain , Thunderstorm Light Thunderstorms and Rain
5:55 AM 58.1 °F 55.4 °F 91% 29.94 in 7.0 mi Calm Calm - N/A Rain , Thunderstorm Light Thunderstorms and Rain
6:15 AM 58.1 °F 56.1 °F 93% 29.94 in 3.0 mi SSE 5.8 mph - 0.11 in Rain , Thunderstorm Heavy Thunderstorms and Rain
6:35 AM 57.9 °F 56.1 °F 94% 29.94 in 5.0 mi ENE 3.5 mph 17.3 mph 0.02 in Rain , Thunderstorm Heavy Thunderstorms and Rain
6:55 AM 58.1 °F 56.3 °F 94% 29.95 in 5.0 mi Calm Calm - 0.10 in Rain , Thunderstorm Heavy Thunderstorms and Rain
7:15 AM 58.1 °F 56.5 °F 94% 29.95 in 5.0 mi SE 5.8 mph - 0.01 in Rain , Thunderstorm Light Thunderstorms and Rain
7:35 AM 58.1 °F 56.7 °F 95% 29.94 in 5.0 mi ESE 3.5 mph - 0.02 in   Mostly Cloudy
7:55 AM 58.1 °F 56.8 °F 96% 29.94 in 7.0 mi SE 4.6 mph - 0.02 in Thunderstorm Mostly Cloudy
8:15 AM 58.5 °F 56.8 °F 94% 29.95 in 7.0 mi SSE 6.9 mph - N/A   Mostly Cloudy
8:35 AM 59.7 °F 58.1 °F 94% 29.95 in 10.0 mi SSE 9.2 mph - N/A   Scattered Clouds
8:55 AM 61.2 °F 58.6 °F 91% 29.94 in 10.0 mi SSE 11.5 mph - N/A   Clear
9:15 AM 62.6 °F 59.7 °F 90% 29.93 in 10.0 mi SSE 11.5 mph - N/A   Clear
9:35 AM 64.4 °F 60.4 °F 87% 29.93 in 10.0 mi SSE 11.5 mph - N/A   Clear
9:55 AM 64.4 °F 60.6 °F 88% 29.92 in 10.0 mi SSE 10.4 mph - N/A   Light Drizzle
10:15 AM 65.8 °F 60.4 °F 83% 29.92 in 10.0 mi South 12.7 mph - N/A   Scattered Clouds
10:35 AM 67.1 °F 60.3 °F 79% 29.92 in 10.0 mi South 17.3 mph - N/A   Clear
10:55 AM 68.9 °F 60.8 °F 75% 29.90 in 10.0 mi South 16.1 mph - N/A   Clear
11:15 AM 69.8 °F 61.0 °F 73% 29.90 in 10.0 mi South 16.1 mph - N/A   Clear
11:35 AM 72.9 °F 61.9 °F 68% 29.90 in 10.0 mi South 13.8 mph 17.3 mph N/A Thunderstorm Clear
11:55 AM 73.2 °F 61.7 °F 67% 29.90 in 10.0 mi South 15.0 mph 20.7 mph N/A   Clear
12:15 PM 74.8 °F 62.2 °F 65% 29.90 in 10.0 mi South 13.8 mph 17.3 mph N/A Thunderstorm Clear
12:35 PM 77.0 °F 63.3 °F 63% 29.88 in 10.0 mi South 15.0 mph 18.4 mph N/A Thunderstorm Scattered Clouds
12:55 PM 78.4 °F 63.3 °F 60% 29.89 in 10.0 mi South 13.8 mph 18.4 mph N/A Thunderstorm Thunderstorm
2:15 PM 74.1 °F 64.4 °F 72% 29.87 in 10.0 mi South 10.4 mph - N/A Rain , Thunderstorm Light Thunderstorms and Rain
2:35 PM 72.9 °F 64.8 °F 76% 29.89 in 10.0 mi SSW 8.1 mph - N/A Rain , Thunderstorm Light Thunderstorms and Rain
2:55 PM 71.2 °F 65.3 °F 81% 29.88 in 10.0 mi SSE 6.9 mph - N/A Rain , Thunderstorm Light Thunderstorms and Rain
3:15 PM 71.2 °F 65.7 °F 82% 29.86 in 10.0 mi SE 8.1 mph - N/A Rain , Thunderstorm Light Thunderstorms and Rain
3:35 PM 71.1 °F 65.7 °F 83% 29.87 in 10.0 mi SSE 4.6 mph - N/A Rain , Thunderstorm Light Thunderstorms and Rain
3:55 PM 70.7 °F 65.8 °F 85% 29.86 in 10.0 mi SSE 8.1 mph - N/A Thunderstorm Thunderstorm
4:15 PM 71.1 °F 66.2 °F 85% 29.89 in 10.0 mi South 5.8 mph - N/A Rain , Thunderstorm Light Thunderstorms and Rain
4:35 PM 70.7 °F 66.4 °F 86% 29.87 in 10.0 mi East 5.8 mph - N/A Thunderstorm Unknown
4:55 PM 70.3 °F 66.2 °F 87% 29.84 in 10.0 mi ESE 9.2 mph - N/A Rain , Thunderstorm Light Thunderstorms and Rain
5:15 PM 70.3 °F 66.4 °F 87% 29.85 in 10.0 mi ESE 8.1 mph - N/A Rain Light Rain
5:35 PM 70.7 °F 66.6 °F 87% 29.85 in 10.0 mi SE 8.1 mph - N/A Rain Light Rain
5:55 PM 70.9 °F 66.6 °F 86% 29.85 in 10.0 mi SE 9.2 mph - N/A Rain Light Rain
6:15 PM 70.3 °F 66.9 °F 89% 29.83 in 10.0 mi SE 11.5 mph - N/A Thunderstorm Scattered Clouds
6:35 PM 70.0 °F 66.7 °F 89% 29.83 in 10.0 mi ESE 5.8 mph - N/A Thunderstorm Clear
7:15 PM 69.1 °F 66.7 °F 92% 29.85 in 10.0 mi SE 6.9 mph - N/A Thunderstorm Scattered Clouds
7:35 PM 69.1 °F 66.6 °F 92% 29.86 in 10.0 mi SE 10.4 mph - N/A   Mostly Cloudy
8:15 PM 68.7 °F 64.9 °F 88% 29.86 in 10.0 mi East 3.5 mph - N/A   Scattered Clouds
8:35 PM 67.6 °F 64.8 °F 90% 29.88 in 10.0 mi SE 6.9 mph - N/A Thunderstorm Clear
8:55 PM 67.5 °F 64.4 °F 90% 29.88 in 10.0 mi SSE 9.2 mph - N/A Thunderstorm Scattered Clouds
9:15 PM 65.7 °F 62.6 °F 90% 29.89 in 10.0 mi South 10.4 mph - N/A Rain , Thunderstorm Light Thunderstorms and Rain
9:35 PM 65.3 °F 62.8 °F 92% 29.89 in 10.0 mi South 9.2 mph - N/A Rain , Thunderstorm Light Thunderstorms and Rain
10:15 PM 65.8 °F 63.5 °F 92% 29.89 in 10.0 mi South 11.5 mph - N/A Rain Rain
10:35 PM 65.7 °F 63.5 °F 93% 29.91 in 10.0 mi SE 6.9 mph - 0.01 in Rain Light Rain
10:55 PM 65.5 °F 63.3 °F 93% 29.93 in 7.0 mi SSW 6.9 mph - 0.02 in Rain , Thunderstorm Thunderstorms and Rain
11:15 PM 65.3 °F 63.7 °F 94% 29.95 in 5.0 mi SSW 13.8 mph - 0.05 in Rain , Thunderstorm Light Thunderstorms and Rain
11:35 PM 66.2 °F 64.0 °F 93% 29.93 in 10.0 mi SSW 12.7 mph - 0.08 in Rain , Thunderstorm Light Thunderstorms and Rain
11:55 PM 65.8 °F 63.5 °F 92% 29.93 in 10.0 mi South 16.1 mph 20.7 mph 0.08 in Rain , Thunderstorm Light Thunderstorms and Rain